Theta_e
350 352 351 351 353 352 352 354 354 354 354 354 353 353 352 354 353 354 356 356 357 357 356 357 358 357 357 361 359 362 363 365 364 365 366 368 367 367 366 366 366 364 365 365 363 360 361 362 365 366 367 364 364 363 360 361 362 361 362 359 357 361 359 358 355 355 358 360 357 356 358 360 358 362 361 361 361 363 363 367 369 366 364 363 367
351 352 353 351 350 350 349 351 354 354 352 352 353 351 351 351 353 354 352 355 356 354 356 356 358 356 358 359 362 361 364 366 364 361 364 364 366 361 361 366 368 359 357 354 357 362 361 362 364 366 367 364 362 359 359 358 358 355 354 355 355 358 361 356 356 355 354 358 359 359 356 359 354 361 361 359 360 365 364 363 365 364 362 365 364
353 354 353 352 352 350 349 348 348 350 349 349 349 349 350 351 354 353 351 350 354 355 354 355 358 361 361 361 363 363 363 362 362 361 363 363 363 361 360 357 358 358 359 358 354 356 359 360 362 364 365 363 362 361 362 362 358 358 355 356 355 358 357 358 355 353 354 356 359 358 355 356 356 358 361 361 363 362 362 361 360 359 360 361 361
355 357 356 354 353 350 350 347 347 347 347 347 347 348 348 349 352 351 351 349 348 354 355 356 358 361 359 360 362 363 362 363 359 358 362 365 365 365 364 362 361 361 361 359 355 356 359 360 360 362 364 362 362 364 363 360 358 357 355 357 356 353 356 357 360 357 356 353 357 356 357 357 357 359 359 361 358 358 359 360 361 359 360 359 360
359 359 359 358 355 353 349 347 347 348 347 346 346 347 347 347 349 351 350 348 348 349 354 356 357 358 355 356 358 359 359 360 359 360 359 363 364 363 365 365 363 365 365 358 356 358 360 359 360 362 362 359 361 361 361 360 358 357 355 355 358 358 356 357 358 358 356 354 354 356 357 356 359 358 358 354 357 357 358 357 356 358 360 359 357
356 360 362 360 358 357 354 352 350 350 351 348 347 347 347 347 349 349 351 349 350 349 349 352 353 355 356 356 358 360 362 362 362 363 361 361 362 364 365 363 362 362 363 358 357 360 360 362 363 362 361 361 361 361 362 361 358 354 353 355 356 356 356 357 359 357 350 349 348 348 353 351 351 354 357 356 353 351 354 356 356 357 357 355 355
358 361 362 361 361 360 359 357 355 353 354 352 349 349 348 347 348 348 350 350 350 348 348 351 352 352 354 355 359 362 363 362 367 367 367 366 366 364 364 364 363 364 364 364 362 361 360 362 363 362 362 364 362 362 362 359 356 356 356 355 356 355 354 353 352 349 348 347 350 355 355 357 356 352 356 357 354 352 346 346 346 352 354 353 350
360 362 362 361 361 360 361 361 361 360 361 362 358 354 352 349 348 350 351 351 350 349 347 347 351 353 353 356 365 367 367 367 370 369 368 366 365 363 363 364 364 363 364 365 365 364 363 359 358 359 362 363 362 362 362 360 359 355 352 352 352 349 348 349 348 348 349 350 350 346 344 343 349 353 352 350 345 345 345 344 344 346 348 351 346
360 361 361 360 360 362 362 361 363 364 364 365 363 360 359 358 356 355 355 354 353 351 350 348 351 356 358 359 364 365 366 363 358 357 360 363 365 363 366 365 364 366 364 361 359 359 359 360 361 360 359 359 358 357 355 352 351 346 350 347 350 354 354 349 349 349 348 349 349 346 340 343 343 340 341 339 339 339 343 345 344 346 347 347 344
360 359 359 359 361 363 364 365 364 365 366 366 365 365 363 361 360 360 359 359 358 357 356 355 355 354 357 360 363 364 360 352 342 340 343 355 359 360 364 363 364 362 360 359 358 356 357 357 357 356 355 356 356 354 350 350 349 351 352 353 354 353 352 353 351 350 344 342 342 342 341 336 334 337 338 338 341 342 341 343 341 342 343 341 340
359 358 357 360 361 363 361 361 362 362 363 363 365 365 364 362 361 361 361 361 361 362 359 357 359 361 360 360 359 355 349 342 331 332 335 339 353 361 363 363 362 360 358 357 357 355 354 354 354 351 349 347 348 351 351 349 350 351 350 349 349 348 348 350 348 345 343 338 335 335 334 333 333 335 335 335 336 337 338 341 340 339 335 333 330
357 356 357 358 358 357 357 358 359 360 360 360 363 365 364 362 362 362 361 360 360 360 361 360 361 361 361 356 355 350 344 329 325 330 332 334 341 355 361 359 360 359 359 356 353 354 353 350 347 348 345 345 347 347 348 348 347 346 346 344 342 341 340 342 343 340 339 335 332 331 330 329 329 330 329 330 332 335 337 338 340 336 334 332 331
355 355 357 358 355 354 355 353 355 356 356 358 360 361 361 358 358 360 360 362 361 358 358 357 356 355 355 352 349 350 346 326 325 326 330 331 336 350 357 358 355 356 354 352 351 350 347 345 343 343 343 343 346 344 342 340 342 341 341 342 342 339 332 332 335 337 336 332 330 328 330 329 327 329 330 331 334 333 335 334 337 336 334 331 330
352 352 352 353 354 355 354 354 354 355 356 357 357 358 356 356 357 357 359 359 358 356 355 354 354 354 353 351 350 346 344 328 322 326 328 329 333 347 354 350 349 347 346 344 342 341 341 341 341 341 342 345 344 342 340 336 336 336 335 334 334 336 338 336 335 335 335 333 332 329 329 331 328 331 333 334 332 331 332 331 335 336 334 332 334
347 349 349 351 354 354 354 354 353 353 354 355 356 355 353 354 354 354 353 352 351 350 347 347 347 348 349 350 349 343 338 321 321 324 325 328 336 349 348 345 343 342 341 340 339 337 337 339 340 339 339 341 343 341 339 337 335 333 332 331 330 329 329 330 332 333 333 332 330 329 329 330 331 331 333 335 334 334 333 333 333 334 336 337 336
344 345 346 346 347 348 349 350 351 351 351 352 352 352 352 350 348 347 345 343 343 341 339 340 341 344 346 346 345 344 342 320 320 323 327 335 341 345 342 339 336 335 336 337 337 338 339 338 337 336 337 336 336 337 339 338 333 331 330 330 329 328 327 329 325 328 332 331 331 331 330 330 328 330 331 331 334 335 335 333 333 333 331 329 326
344 344 344 345 345 346 348 347 347 347 348 348 349 350 350 345 344 343 339 338 337 335 335 336 340 341 342 343 343 341 340 323 320 325 327 329 337 341 339 336 334 334 335 337 337 336 337 337 337 337 338 338 335 329 335 338 335 332 330 329 329 329 327 328 327 325 324 322 322 324 324 325 324 321 321 322 330 333 332 329 327 328 326 324 325
342 344 345 346 346 347 345 346 346 346 347 346 346 344 343 340 338 337 334 332 331 333 335 337 338 340 339 339 340 337 334 324 318 319 323 327 337 339 336 333 332 334 335 336 336 336 336 336 337 336 336 338 327 329 333 338 334 331 330 328 327 326 327 328 329 330 326 325 325 325 325 326 328 326 323 322 323 328 330 326 328 327 325 324 321
342 342 345 346 345 346 347 346 345 344 344 343 342 340 338 336 334 331 329 329 330 334 336 334 333 335 336 337 336 337 336 329 316 317 320 326 334 337 336 334 333 334 333 332 332 332 333 335 335 333 331 325 319 322 328 335 332 331 329 327 326 325 328 330 328 328 330 329 329 328 327 327 328 328 328 328 326 325 325 326 327 326 323 323 323
344 345 345 345 345 346 346 344 344 344 342 340 337 334 332 330 329 329 329 330 330 332 333 332 329 331 334 335 336 335 334 332 325 316 319 321 327 338 338 334 332 333 334 332 331 331 332 331 326 318 317 316 315 316 319 325 333 332 331 329 327 326 329 329 329 328 328 327 326 326 325 325 323 324 322 322 323 324 322 322 322 322 322 321 320
343 342 342 340 340 339 339 339 338 338 339 337 336 333 331 330 331 332 332 332 331 329 329 329 329 332 335 335 335 334 333 333 327 314 315 319 325 333 337 335 334 333 332 332 331 330 329 328 325 318 313 313 312 312 314 318 327 333 332 331 328 330 330 329 329 327 328 327 325 324 323 322 321 321 320 321 319 320 321 320 320 318 319 318 316
340 339 337 336 335 335 336 339 339 335 333 332 330 329 331 333 334 333 332 330 328 326 327 327 327 329 333 335 334 332 333 334 335 320 315 316 321 327 335 336 334 332 329 329 328 328 328 326 324 317 312 311 311 310 310 314 319 326 325 313 316 322 329 329 328 326 324 323 321 321 320 318 318 318 318 318 318 318 320 320 320 321 322 321 318
337 336 334 333 333 333 334 335 334 333 331 332 331 331 333 332 333 332 331 330 328 327 328 328 329 330 331 332 333 334 334 333 329 329 318 315 316 320 324 332 325 334 331 329 328 327 327 325 322 316 308 307 307 309 310 313 319 319 310 313 315 320 325 324 324 323 321 320 320 319 318 318 317 316 315 315 316 319 318 320 320 321 323 323 321
337 335 334 333 332 333 335 334 333 333 332 332 332 332 333 334 333 332 332 331 329 330 332 331 329 328 329 330 333 334 336 335 328 326 324 314 312 312 314 319 324 332 333 329 327 326 324 323 317 307 305 304 305 307 309 315 317 307 310 314 318 322 323 322 320 320 319 317 316 316 316 315 316 315 315 318 317 318 317 318 318 319 319 319 320
335 334 333 332 332 333 334 335 335 335 334 333 332 332 332 333 332 333 332 331 331 330 331 331 330 329 328 329 330 332 333 333 331 324 320 318 315 314 316 317 318 319 330 330 328 324 316 308 307 308 308 308 309 312 313 313 310 310 311 315 320 320 320 319 319 319 317 316 315 316 315 315 315 315 319 320 321 319 317 318 318 318 317 318 319
334 333 334 334 333 333 332 333 334 335 335 334 333 332 331 330 329 330 329 328 330 330 330 330 330 329 328 328 330 331 332 333 332 331 328 326 321 316 316 318 323 323 324 323 319 314 311 310 310 311 314 317 322 322 320 320 315 317 318 320 320 318 318 318 319 317 316 315 315 314 314 315 315 317 319 319 318 315 315 316 315 314 315 315 316
334 334 333 332 334 333 331 329 328 328 328 327 327 328 329 328 327 326 325 324 325 326 329 331 330 328 327 327 330 332 332 333 334 334 333 330 327 326 325 323 321 320 324 324 322 322 321 320 318 314 314 316 319 319 319 321 319 319 318 318 318 318 317 317 317 316 316 314 314 314 314 315 316 316 314 314 313 314 314 315 313 312 314 314 315
335 334 331 329 328 327 327 328 327 326 326 325 323 324 325 326 326 327 327 327 325 325 328 330 330 329 327 327 328 330 330 332 333 333 331 330 329 328 328 328 328 326 322 320 319 318 318 318 319 323 322 321 319 319 319 320 319 319 318 318 317 318 317 316 316 317 316 315 314 314 314 315 312 311 312 312 312 313 314 313 313 312 313 314 313
335 331 329 327 324 324 322 323 323 323 323 322 318 314 314 321 330 328 321 318 321 329 330 330 331 331 329 328 328 329 330 331 331 314 330 317 335 333 332 329 327 323 322 315 323 324 324 321 319 318 319 318 318 318 317 316 316 316 315 316 316 315 315 313 313 313 313 313 312 312 310 311 311 311 311 311 311 311 313 313 314 313 314 313 311
331 330 330 328 327 325 322 320 320 319 319 320 320 316 309 300 305 320 320 311 304 299 309 326 329 333 332 332 329 331 330 328 306 301 301 301 302 304 307 308 311 319 318 315 324 321 320 319 319 319 318 318 316 316 316 316 316 316 315 316 314 313 312 312 313 312 313 312 312 311 311 310 310 310 310 309 311 311 312 311 312 313 311 309 309
332 330 331 331 330 329 327 326 326 325 322 322 324 324 322 316 298 296 303 304 299 297 297 299 305 314 332 328 317 305 306 302 299 299 299 299 300 301 303 304 305 306 309 327 322 320 320 319 318 318 317 317 317 316 316 315 315 315 314 314 314 313 312 311 312 312 311 310 311 310 310 309 308 309 308 309 309 310 310 311 311 311 310 309 308
333 332 332 332 332 333 331 331 329 329 326 325 325 325 324 323 320 302 296 298 298 295 295 296 299 304 311 318 325 320 305 299 299 299 299 300 300 300 301 302 304 307 308 308 323 320 320 318 318 317 318 316 316 316 316 315 315 315 315 313 313 313 312 312 312 312 311 310 310 309 309 308 308 308 308 308 308 308 309 309 309 308 309 308 308
335 334 335 334 332 332 331 332 331 328 326 326 324 324 324 323 322 321 315 298 296 296 295 295 296 298 300 301 305 308 306 300 298 298 299 299 299 299 299 300 303 303 306 319 322 319 319 318 316 318 317 315 316 315 315 314 314 314 313 312 312 312 314 315 315 312 311 310 309 308 308 308 308 307 308 308 309 307 308 308 308 308 307 306 306
334 335 335 335 333 331 330 332 332 331 328 325 324 324 324 325 324 324 323 323 323 310 301 297 297 298 296 298 299 298 297 298 298 298 298 299 299 300 305 316 300 300 310 321 319 319 318 317 317 317 318 316 315 315 315 315 315 314 314 313 313 314 314 314 312 310 309 310 309 307 308 308 307 307 307 308 308 307 307 306 307 305 305 304 304
334 334 334 334 333 330 327 328 328 330 329 326 325 325 326 326 326 325 324 324 323 324 324 321 306 299 310 303 296 296 297 297 298 298 298 299 300 301 307 323 320 320 321 322 319 318 317 317 316 315 316 316 315 315 314 314 314 314 313 313 312 312 312 311 309 311 310 309 309 307 308 307 307 307 307 307 306 305 306 305 304 305 304 304 304
330 333 334 332 329 327 326 326 325 325 324 324 325 325 326 325 325 325 324 325 324 323 324 324 319 305 298 295 294 296 296 297 297 298 298 299 300 302 322 320 319 318 318 319 318 317 318 317 317 316 316 315 316 316 315 315 314 313 312 311 310 310 310 310 309 309 310 309 308 307 307 307 307 306 307 306 306 305 304 304 303 303 304 303 304
326 327 327 328 327 326 325 326 326 326 325 322 324 324 324 325 325 325 326 324 324 325 324 324 322 319 315 315 307 297 294 295 296 296 297 299 297 315 323 320 319 319 318 318 318 318 317 317 317 317 317 316 315 315 315 314 314 315 313 313 312 310 309 309 308 309 308 307 307 308 307 307 307 307 305 304 304 304 304 304 304 303 303 302 302
325 324 326 328 328 327 327 327 326 325 324 323 324 323 322 323 325 324 323 323 324 323 323 324 323 323 323 321 317 318 312 299 297 299 300 302 312 322 322 321 321 318 318 318 318 317 317 318 318 316 317 315 315 314 314 315 313 312 311 313 312 312 306 309 309 309 309 308 306 306 306 307 306 305 305 304 303 303 303 303 302 302 302 302 302
327 328 326 327 327 326 326 325 324 323 324 324 324 323 322 322 322 323 324 324 324 323 323 324 324 324 323 323 323 321 318 319 319 319 320 321 322 322 322 322 321 320 320 319 319 318 317 316 317 317 316 316 316 316 314 313 312 312 312 311 311 311 309 309 309 308 307 306 306 306 305 306 306 305 305 304 304 303 303 302 302 302 301 301 301
329 328 328 328 327 326 327 325 324 326 327 328 326 326 323 323 324 323 323 324 324 324 324 323 323 326 325 325 324 322 321 321 322 323 323 323 322 323 323 322 321 321 320 320 318 317 317 316 316 316 317 316 316 314 313 314 313 312 312 310 310 310 309 309 307 306 305 306 305 306 305 305 306 305 305 304 303 303 302 302 302 302 302 301 301
330 328 329 327 326 327 329 327 326 327 327 327 327 328 326 327 327 324 324 324 323 323 324 324 324 327 326 324 313 314 324 323 323 323 323 322 323 322 322 321 320 320 320 320 318 318 317 316 316 315 315 315 315 314 314 313 312 312 310 310 310 308 307 307 307 306 306 305 305 305 305 305 305 304 303 303 303 303 303 302 302 302 302 302 302
329 328 327 328 330 327 327 327 328 326 327 326 326 325 325 326 326 326 326 325 324 323 323 323 324 329 314 302 304 296 323 324 324 323 324 323 323 322 322 322 321 322 320 319 319 319 318 317 316 314 314 314 313 313 312 312 311 310 310 309 309 307 306 305 305 306 305 305 305 304 304 304 303 304 304 303 303 303 302 302 302 302 302 302 302
331 329 327 328 327 326 325 326 327 327 327 326 325 326 325 324 325 327 326 326 325 324 324 324 327 327 323 311 311 304 326 324 324 323 322 322 323 322 323 321 320 321 321 321 320 319 317 316 315 315 314 313 314 312 312 311 310 310 309 309 307 306 306 305 305 305 305 305 304 303 304 304 303 304 303 303 302 302 302 302 302 302 301 302 302
328 327 327 327 328 326 328 326 327 326 326 326 325 325 325 327 325 326 326 326 326 325 325 325 325 322 322 318 317 320 324 323 324 322 322 322 322 322 321 321 322 320 320 320 319 317 316 315 314 314 315 314 313 313 312 311 310 309 309 307 306 304 305 305 305 304 304 304 303 303 303 304 303 303 303 303 303 302 301 301 301 301 301 301 301
326 325 325 326 326 327 327 327 325 326 327 325 325 325 325 324 324 324 323 324 326 326 324 323 323 322 319 319 320 322 322 323 321 323 321 321 322 321 320 320 320 321 318 317 318 318 316 314 314 314 313 313 314 313 311 310 310 309 308 307 306 305 305 305 305 305 304 304 303 304 303 303 303 303 303 303 303 302 301 302 302 301 301 301 301
324 323 322 323 324 325 325 326 325 326 326 325 324 324 324 323 323 323 322 323 323 323 323 324 325 324 322 322 322 321 321 322 322 320 319 320 319 318 318 319 319 318 318 318 317 316 315 314 313 313 312 312 313 311 311 310 310 309 308 308 306 306 306 306 305 305 304 305 304 304 303 303 303 303 302 303 302 302 302 302 303 302 301 301 301
324 323 322 322 323 324 324 326 325 326 326 325 324 322 321 321 321 321 321 323 322 322 323 324 323 323 322 322 320 320 320 319 319 319 319 319 319 319 318 319 317 317 317 317 317 314 314 315 313 313 313 312 312 311 311 310 310 309 308 307 307 306 306 306 306 305 304 305 305 304 303 303 302 303 302 302 302 302 302 302 301 301 301 300 301
322 322 322 322 322 321 322 322 322 323 323 323 324 322 320 320 321 320 322 323 322 322 322 322 322 321 321 320 320 320 320 319 319 318 318 319 319 319 319 319 318 317 317 316 316 315 315 314 314 313 312 312 311 310 310 309 309 309 309 308 306 304 301 298 306 305 303 305 306 304 304 303 303 303 302 302 302 302 301 301 301 301 301 300 300
322 322 322 321 321 321 321 320 320 321 322 323 322 322 321 320 320 320 321 321 321 322 321 320 320 320 320 320 319 318 317 317 317 317 317 317 318 319 318 318 317 316 314 315 315 314 315 314 313 313 312 312 311 310 310 309 308 308 308 306 301 292 291 293 299 303 298 304 306 304 305 304 303 303 302 302 302 302 301 301 301 301 301 301 301
322 321 322 322 322 321 321 321 322 321 323 323 323 322 321 322 320 319 320 321 321 320 320 319 319 319 318 317 317 316 316 316 315 315 317 317 317 317 317 316 316 315 314 314 314 314 314 315 314 313 313 313 311 311 309 309 308 308 308 304 293 289 291 292 295 294 300 304 304 305 304 304 303 303 302 302 302 301 301 301 301 301 300 300 300
321 321 321 322 321 321 322 321 321 321 323 323 322 321 320 320 321 320 320 320 320 319 319 319 319 318 317 317 316 315 315 316 316 315 317 316 316 316 317 315 314 314 315 314 314 313 314 314 312 312 312 312 310 310 309 309 309 307 299 294 291 289 288 291 301 292 289 292 304 304 303 302 302 302 302 302 301 301 301 301 301 300 301 300 300
Wind_Speed
13 12 12 12 13 13 13 13 14 12 12 10 10 9 8 8 8 7 7 7 5 6 7 7 6 6 7 6 6 5 4 4 3 4 4 5 5 5 5 5 5 7 7 5 2 3 0 5 6 4 4 6 5 5 6 7 8 7 7 8 8 8 8 7 8 9 7 7 7 8 8 7 6 5 7 6 7 5 7 7 6 7 6 4 5
12 12 11 11 13 13 13 12 12 11 13 12 11 10 9 9 8 8 8 7 7 7 7 7 7 7 7 7 7 6 6 6 6 7 7 6 7 6 6 3 3 5 8 4 6 3 3 5 5 5 5 6 7 7 7 8 8 8 8 7 9 7 7 8 7 8 9 6 4 7 9 5 6 6 6 8 7 7 7 7 6 6 6 4 6
12 11 11 11 12 12 12 12 12 13 13 12 12 11 10 9 9 9 8 8 8 7 7 8 6 5 6 5 5 5 5 6 7 8 6 6 6 6 5 3 3 5 2 3 1 6 5 5 5 6 5 6 6 7 6 6 8 8 8 9 9 10 9 6 6 8 9 7 6 6 6 5 6 7 7 6 6 6 6 7 7 7 5 6 7
10 11 11 12 13 12 11 11 13 13 13 12 12 11 10 9 8 9 9 8 8 7 7 7 6 6 6 6 6 5 5 5 4 8 9 6 6 3 3 4 5 6 5 5 6 7 7 7 7 6 6 7 6 6 5 6 7 7 7 5 4 9 9 8 4 4 7 8 7 7 7 6 5 5 6 6 7 6 6 5 7 6 6 7 6
8 10 11 12 12 11 12 12 12 12 12 11 12 11 10 9 8 9 9 9 9 8 7 7 7 7 7 7 7 7 7 6 5 5 11 6 4 5 6 7 7 6 5 6 6 7 8 8 7 6 6 7 7 6 6 7 6 6 8 7 6 4 5 6 5 5 6 8 8 8 9 8 8 9 10 9 7 8 5 6 6 7 6 7 7
11 11 10 11 10 11 11 10 10 11 11 11 11 10 10 10 10 8 8 9 9 8 8 7 7 7 7 7 6 6 5 5 7 9 8 5 4 4 5 5 5 5 5 6 7 7 7 7 6 6 7 7 7 7 7 7 5 6 9 9 7 8 6 5 4 2 5 7 6 6 7 7 7 6 5 8 8 8 8 7 7 6 6 7 8
11 11 11 11 10 10 10 10 9 9 9 10 9 9 10 10 10 9 8 9 9 9 8 8 7 7 7 6 5 3 2 3 2 2 3 3 3 4 5 4 4 5 6 7 8 7 6 5 6 6 7 7 8 7 6 8 6 6 6 7 9 8 7 5 7 6 4 6 5 4 5 2 4 6 6 7 7 6 8 8 7 6 6 7 7
11 11 11 10 10 11 10 9 8 8 8 8 8 8 9 10 9 8 8 9 8 8 9 8 7 7 7 6 4 2 1 0 1 2 2 2 2 3 2 3 2 2 1 3 3 2 4 5 6 6 7 7 8 7 7 7 6 5 5 7 8 9 9 6 4 4 6 5 5 6 7 7 6 6 6 7 7 7 7 8 8 7 7 6 9
11 11 10 10 10 10 10 9 8 7 7 6 7 8 8 8 7 7 7 7 6 7 8 8 7 5 4 2 1 1 2 4 5 4 4 4 3 2 1 0 1 2 4 3 3 4 5 4 4 5 7 10 13 11 10 11 7 5 5 3 6 3 3 4 4 3 2 2 4 3 4 4 6 7 7 8 8 8 8 8 7 7 8 6 7
11 11 10 10 10 10 9 9 9 8 7 7 7 7 7 7 6 6 6 6 7 6 6 5 6 7 5 4 3 2 4 4 6 8 7 5 5 3 2 3 2 1 2 3 5 4 4 4 3 11 12 14 19 18 15 11 8 3 3 1 2 1 1 1 2 3 5 6 5 5 5 6 7 8 8 8 8 8 9 8 8 8 8 7 7
10 10 10 10 9 8 6 6 7 8 9 8 7 7 7 7 7 7 7 7 7 6 6 6 5 3 1 3 3 4 4 5 7 6 7 8 7 4 3 1 1 0 1 2 1 1 3 2 3 8 8 10 12 16 10 6 8 16 19 19 14 8 4 4 6 9 8 7 7 8 8 8 9 9 9 10 9 9 8 7 8 7 8 8 9
10 10 10 10 9 9 7 6 7 8 8 8 8 7 7 8 8 7 7 7 6 5 6 5 3 2 1 1 3 4 5 7 5 6 6 7 7 6 2 3 3 2 1 2 1 1 3 5 4 4 6 7 8 7 13 20 21 22 22 21 22 22 18 11 8 8 8 7 8 8 8 7 8 8 8 9 8 8 8 7 8 7 8 8 7
9 10 10 8 10 9 9 9 9 9 9 9 8 8 8 7 7 7 6 5 4 4 3 3 3 4 3 2 4 4 4 8 6 7 6 6 6 8 3 4 5 5 5 6 6 5 4 4 5 4 4 9 9 7 7 11 17 20 18 18 22 21 17 19 18 12 9 10 10 11 10 7 8 9 9 9 8 8 8 7 8 7 7 7 7
5 8 9 10 9 10 11 11 11 11 10 9 8 8 8 6 5 4 3 5 4 3 3 3 3 2 2 3 3 4 5 8 9 7 5 6 6 6 8 7 7 7 7 7 6 6 5 5 5 6 5 7 10 10 10 12 12 11 11 10 9 14 17 19 17 17 14 10 9 9 9 9 8 8 9 9 9 8 8 9 9 8 6 6 4
3 3 4 3 4 6 7 8 9 9 8 8 7 8 8 6 5 4 6 5 5 5 4 4 4 4 4 3 3 3 5 8 7 6 5 4 3 9 8 7 8 8 8 8 8 7 6 7 10 11 10 10 10 10 9 9 10 10 11 12 13 12 11 10 9 9 9 10 11 11 10 9 9 9 9 8 7 7 6 6 6 6 5 6 4
5 5 5 4 3 4 4 6 6 6 6 7 8 8 9 7 6 7 7 7 8 8 6 5 6 6 6 5 4 4 5 9 7 6 4 4 10 8 9 9 8 8 9 9 9 7 8 9 9 10 9 9 9 9 9 7 9 11 13 12 12 12 12 10 13 13 12 10 10 9 9 8 9 10 10 10 8 7 7 7 8 7 7 7 6
5 5 4 4 4 5 6 5 4 4 6 6 7 6 6 9 6 7 8 7 7 6 6 6 5 7 7 6 6 7 8 11 8 9 9 10 10 9 9 9 9 11 10 10 9 11 10 10 10 9 8 8 7 6 8 9 9 9 10 10 9 9 10 9 10 11 12 11 10 8 6 6 9 12 13 15 12 10 7 7 8 9 8 8 7
3 3 4 5 5 4 5 4 5 5 5 7 6 7 8 7 7 6 8 8 8 6 6 7 5 6 8 8 8 9 9 9 10 11 10 8 10 10 9 9 11 10 11 12 11 12 12 14 10 8 9 8 7 6 7 9 10 9 10 10 10 10 9 7 7 6 8 8 9 8 7 6 6 9 11 12 14 12 10 9 10 8 8 8 8
6 3 3 4 5 5 6 5 5 4 5 5 5 5 5 4 5 7 8 8 7 5 6 8 9 8 8 9 13 12 10 9 10 9 9 10 10 9 9 10 11 12 11 11 10 10 12 13 16 12 9 10 13 11 9 10 10 10 9 10 10 10 8 7 7 8 8 8 7 8 8 9 8 9 9 9 12 12 9 9 8 8 8 8 9
8 6 6 7 5 5 6 7 7 6 7 6 6 7 8 7 7 9 9 8 7 6 7 8 10 8 7 9 9 10 10 8 8 11 10 10 10 10 8 10 11 12 11 10 11 11 11 10 10 13 16 16 15 16 14 9 9 10 9 9 10 10 8 8 8 7 7 7 6 7 7 7 7 7 8 8 8 9 8 8 8 7 7 7 7
8 8 8 7 7 7 7 7 8 9 9 9 8 8 6 8 9 11 11 10 9 9 9 8 8 7 7 9 10 10 8 7 7 8 8 8 10 11 10 10 10 10 11 11 11 11 11 10 8 11 16 16 16 17 17 17 14 11 10 10 9 8 7 7 8 8 7 6 6 6 6 6 6 6 7 7 8 8 7 7 7 8 7 7 7
8 9 8 6 7 8 9 8 8 8 9 9 9 9 9 9 5 7 8 10 11 11 10 8 8 8 7 6 8 9 10 10 7 9 11 12 13 12 10 11 10 11 11 11 11 11 10 8 8 11 16 17 17 18 18 16 15 11 10 11 11 10 8 7 6 6 6 6 6 6 7 7 6 7 7 7 7 8 8 7 7 7 6 6 6
10 11 9 9 8 8 7 9 9 8 9 10 11 10 10 8 8 8 9 9 9 10 9 9 7 9 9 9 9 9 10 9 10 10 14 16 15 14 15 13 12 11 12 12 11 10 9 9 10 17 17 17 16 16 14 15 14 10 13 13 11 9 9 8 7 7 6 6 6 6 6 6 7 7 7 8 8 8 8 8 8 7 6 6 6
10 10 10 10 11 9 9 10 10 10 11 11 11 10 8 9 9 9 9 9 9 9 8 9 10 10 10 11 10 10 10 10 11 13 13 15 13 13 12 11 12 12 12 11 10 11 10 10 11 17 18 18 18 17 16 13 11 11 11 11 12 11 8 7 6 6 6 5 6 6 6 6 7 7 7 7 8 9 9 8 8 8 7 7 7
9 10 10 10 10 10 10 10 10 10 9 9 10 10 10 10 9 8 8 8 8 9 8 8 9 9 10 10 11 10 10 11 10 11 15 14 15 15 16 15 13 13 13 12 12 12 12 14 15 16 16 16 15 15 13 13 13 12 11 11 10 8 7 7 6 6 6 6 6 6 6 6 6 7 7 7 7 7 8 7 8 7 7 7 7
7 9 10 12 11 10 11 12 12 10 10 8 8 8 8 8 8 7 8 8 8 8 9 9 9 10 10 12 11 11 11 11 12 11 12 13 13 17 18 18 18 18 15 13 14 12 11 12 13 12 11 9 9 10 10 10 9 10 10 10 9 8 8 7 7 7 6 6 6 6 6 6 6 6 6 6 6 7 8 8 8 8 8 8 7
10 10 10 10 11 10 11 9 9 9 9 8 7 7 6 7 7 7 8 8 9 9 10 10 10 11 11 13 12 11 11 11 12 11 10 11 11 12 14 15 17 16 12 9 9 8 8 9 10 13 13 13 11 10 9 7 6 7 7 7 7 7 7 6 6 6 6 6 6 6 6 6 6 6 6 6 6 6 8 8 8 8 9 8 8
11 11 11 9 9 9 9 10 9 8 7 7 6 6 6 6 6 6 6 6 9 9 9 9 10 10 12 13 13 12 12 11 11 11 11 10 11 11 11 10 9 9 10 10 11 13 12 12 11 9 8 8 7 7 7 6 6 6 6 7 7 7 6 6 6 6 6 6 6 6 6 6 6 6 6 6 6 6 7 7 7 8 8 8 7
11 11 10 10 10 9 9 8 9 9 9 9 9 8 8 7 6 8 8 7 6 3 9 10 9 9 11 12 13 11 11 11 6 6 7 7 8 9 10 10 9 9 10 12 11 9 8 7 6 7 6 6 6 6 6 6 7 7 8 7 7 6 7 7 6 6 6 5 6 6 7 6 6 6 6 6 6 6 6 7 7 7 7 7 7
10 10 9 10 9 9 9 9 9 9 9 8 8 9 14 15 11 7 6 10 13 14 12 6 4 8 9 7 4 8 10 7 7 10 13 13 14 15 14 15 13 12 12 10 7 7 6 6 5 5 4 5 5 5 5 5 5 5 6 6 6 7 7 7 6 6 6 6 5 6 6 6 6 7 6 7 7 6 6 7 7 7 7 8 8
8 8 8 8 8 8 9 8 8 8 8 8 8 8 8 10 15 15 12 12 13 15 15 15 16 14 8 9 10 18 16 13 12 13 14 14 14 14 14 15 14 11 7 5 5 6 6 5 5 5 5 5 4 5 5 5 6 5 6 6 7 8 8 8 8 7 7 7 6 7 7 7 7 7 7 7 8 7 7 7 7 7 7 8 8
7 7 7 7 7 7 7 7 8 8 7 7 7 8 8 9 8 13 13 13 14 15 15 14 15 15 14 12 12 8 10 11 13 14 13 14 13 14 13 12 8 3 2 8 4 5 5 5 4 4 4 5 5 5 6 6 5 6 6 6 6 6 7 7 7 7 6 7 6 7 7 7 7 7 7 7 7 7 7 7 7 7 8 7 8
7 8 8 7 7 8 8 7 7 8 8 7 7 7 8 8 9 8 8 12 15 15 15 14 14 13 14 14 13 12 11 10 13 14 13 13 13 12 11 8 4 3 5 2 5 4 4 5 4 4 4 4 4 4 4 5 7 7 6 7 7 6 6 5 5 7 6 6 6 6 7 6 7 7 6 6 7 7 7 7 7 7 8 8 8
7 7 8 8 7 7 7 7 7 7 7 7 7 7 8 8 8 9 9 8 8 11 13 15 13 13 14 14 15 14 13 12 13 13 13 13 13 12 9 5 2 3 6 4 4 4 4 5 5 4 4 4 4 4 4 5 4 5 6 6 4 4 4 4 5 6 6 5 6 6 6 6 6 7 6 6 7 7 7 8 8 8 8 9 10
7 8 10 8 7 7 7 7 7 7 7 7 8 8 8 8 9 9 9 10 10 9 7 7 10 12 8 9 10 12 12 12 12 12 12 12 11 11 9 6 6 6 4 5 4 4 4 4 4 4 4 4 4 4 3 3 5 5 6 4 4 4 4 5 7 7 7 6 6 6 6 6 7 7 6 6 7 7 7 8 8 9 10 10 10
8 8 8 8 7 6 6 6 7 7 7 7 7 8 9 9 9 9 9 10 10 10 9 7 6 7 11 11 9 9 10 10 10 11 11 11 13 13 8 7 5 5 5 4 4 5 5 5 4 4 4 3 3 3 3 4 4 4 4 5 5 5 6 5 6 7 7 6 5 6 5 5 5 6 6 6 7 7 7 8 8 9 9 10 10
8 8 8 7 7 7 6 6 6 7 7 7 8 8 8 9 9 9 9 9 9 9 9 9 8 7 7 6 6 7 6 7 7 8 9 12 8 6 2 5 4 5 5 5 5 5 5 4 3 4 3 3 2 2 2 3 4 3 3 3 3 4 5 4 5 6 6 5 5 5 5 5 5 5 6 6 7 7 8 8 8 9 9 10 11
8 8 7 7 7 7 7 7 7 8 8 7 7 7 8 8 9 9 9 9 9 10 10 10 9 10 9 7 7 6 6 5 5 3 0 2 4 7 3 5 5 4 5 5 5 4 4 4 4 3 3 2 2 4 4 4 3 3 4 2 2 3 2 3 4 5 4 5 4 4 4 4 4 5 6 7 7 7 8 8 8 8 9 9 9
8 8 9 8 8 8 8 8 8 8 8 8 8 8 8 8 9 9 9 9 9 10 10 10 9 10 10 10 8 8 9 8 8 8 9 8 7 5 4 4 4 4 5 4 4 3 4 3 3 2 2 3 3 2 3 3 2 3 3 3 3 3 3 4 4 5 4 4 4 4 4 5 5 5 6 7 7 7 7 8 8 8 8 9 9
8 8 8 8 8 8 8 9 8 8 8 8 8 8 8 8 8 8 9 10 10 9 9 9 10 10 10 11 10 10 10 9 9 8 7 6 5 5 4 4 4 4 4 4 3 4 4 4 3 3 2 2 3 3 2 1 1 1 1 3 3 3 3 4 5 5 4 4 4 4 5 6 6 6 6 7 7 7 7 8 8 8 8 8 9
8 9 10 8 8 9 8 9 9 9 9 8 9 8 8 8 8 8 8 9 9 9 9 9 8 9 10 11 13 13 9 9 7 7 6 5 5 5 4 4 4 4 4 4 3 3 2 3 2 2 2 2 2 2 2 2 2 1 2 2 3 3 4 4 4 4 4 4 5 5 5 6 7 7 7 7 6 6 6 7 7 7 8 8 9
8 9 10 9 7 8 8 9 8 8 8 9 9 9 9 8 8 8 9 9 9 9 9 9 8 7 7 11 12 5 5 6 6 6 6 5 5 5 4 4 4 4 4 4 4 3 3 2 0 2 3 2 2 2 1 2 2 2 2 2 2 3 4 4 4 4 3 4 5 5 6 5 6 6 6 5 6 7 7 7 7 8 8 8 8
7 8 9 9 9 8 8 8 8 8 8 8 8 7 8 9 9 8 9 8 9 9 8 8 7 7 7 5 5 4 6 6 6 6 5 5 5 5 5 5 4 4 4 4 3 3 3 2 2 3 3 3 2 2 1 2 2 2 3 2 3 4 4 4 3 3 3 4 4 5 5 5 5 5 6 6 6 6 7 7 7 8 8 8 8
7 7 8 9 9 8 7 8 8 8 8 8 8 8 7 8 8 9 9 9 9 8 8 8 8 9 9 6 5 7 7 6 6 6 5 5 5 5 4 4 5 5 5 4 3 2 2 3 4 4 3 3 3 3 2 3 2 2 2 2 3 3 3 3 3 4 3 4 4 4 5 5 5 5 5 5 6 6 7 7 7 8 8 8 9
7 7 8 8 9 8 8 7 7 8 8 8 8 8 8 8 8 8 8 8 8 9 9 9 8 9 9 9 9 8 7 7 6 6 6 5 5 5 5 5 5 6 5 4 4 4 4 4 4 4 3 3 3 2 3 3 3 3 3 3 3 3 3 3 3 3 4 4 5 5 5 5 5 5 5 5 6 6 7 7 8 8 9 9 9
7 8 8 8 8 8 8 8 8 8 8 8 8 8 8 9 8 8 8 8 8 8 8 8 9 9 9 9 9 8 7 7 7 6 5 5 5 5 6 7 6 5 5 5 6 5 5 4 4 4 3 3 3 3 3 3 2 3 3 3 3 3 2 2 3 3 3 4 5 5 4 5 5 5 5 6 6 6 7 8 8 8 9 9 9
8 8 8 8 8 8 8 8 8 8 8 8 9 9 9 9 8 8 7 7 8 8 8 9 9 9 9 8 8 8 7 7 6 6 6 5 5 6 6 6 6 6 6 6 6 5 5 4 4 4 3 3 4 2 2 2 2 3 3 3 3 3 3 3 3 3 4 3 3 4 4 5 5 5 6 6 6 7 7 8 8 9 9 9 9
8 8 8 8 8 8 8 8 9 9 9 9 9 9 9 8 8 7 7 7 8 8 8 8 8 8 8 8 7 7 8 7 7 6 6 6 7 7 7 8 7 7 7 6 6 5 5 5 4 4 4 3 2 3 2 2 2 2 2 4 5 6 6 8 4 4 3 4 3 3 4 5 5 5 6 6 7 7 8 8 8 8 8 9 9
8 8 8 8 8 8 8 9 9 9 9 9 9 9 9 8 9 8 8 8 9 8 8 8 8 8 8 8 8 8 7 7 6 6 7 7 7 8 8 7 7 7 6 6 6 5 5 4 4 4 4 3 3 3 3 2 2 3 3 5 8 6 3 7 7 6 8 7 4 3 4 4 5 6 6 6 6 7 7 8 8 9 9 9 9
9 9 8 9 9 8 8 8 9 9 9 9 9 9 8 8 8 8 9 9 8 9 8 9 9 9 9 9 9 8 8 7 7 7 7 7 7 7 7 7 7 7 6 6 6 6 5 5 4 4 3 3 3 2 2 3 2 2 4 8 10 6 3 1 1 4 7 5 6 5 4 5 6 6 6 6 6 7 8 8 8 9 9 9 9
9 9 9 9 9 8 9 9 9 9 9 9 9 9 9 9 8 8 9 9 9 9 9 9 9 9 9 9 8 8 8 8 7 7 7 7 8 7 7 8 7 7 6 6 6 5 5 4 4 3 2 3 2 2 2 2 3 7 10 12 9 6 6 5 1 5 2 6 6 5 4 5 6 6 6 6 7 7 8 9 9 9 9 8 8
Wind_Direction
198 201 203 202 203 204 204 204 208 208 211 206 216 215 213 215 209 215 205 215 215 209 215 222 226 227 238 242 233 225 224 245 262 256 225 229 239 254 270 275 272 269 267 285 353 59 340 256 264 275 283 277 283 287 284 283 277 274 273 269 266 267 268 274 280 286 290 292 310 318 324 326 315 338 312 316 312 333 321 302 311 304 303 292 137
200 196 206 207 208 205 207 203 206 209 211 207 210 213 213 207 212 210 216 212 221 222 221 223 215 223 233 228 237 239 229 222 224 236 228 217 235 236 231 250 312 345 321 352 339 352 285 292 290 280 269 273 277 280 278 276 272 275 275 280 273 271 275 278 281 289 293 299 339 316 310 322 310 323 324 313 327 318 316 319 305 302 310 315 306
199 197 202 208 209 211 210 205 203 210 213 216 212 214 207 210 206 214 217 220 210 221 218 221 225 225 233 242 244 250 267 272 271 253 235 238 242 263 51 76 175 217 223 81 315 275 274 253 258 266 266 269 270 269 278 293 296 302 309 302 317 309 286 279 285 288 295 303 302 273 273 328 313 315 310 318 313 311 315 317 327 316 326 322 308
202 197 202 207 208 209 209 214 207 207 212 216 221 219 220 212 210 220 222 224 223 206 219 228 216 213 232 236 240 236 232 240 253 283 269 237 248 241 161 188 196 200 197 177 188 220 239 248 256 262 264 266 271 279 278 273 278 289 289 276 238 267 300 300 284 295 302 299 305 316 319 314 302 309 325 320 324 329 311 319 313 317 329 323 317
207 198 204 207 206 208 211 210 211 212 216 216 218 218 222 221 217 225 226 230 231 224 206 216 225 224 232 233 231 230 227 220 226 239 258 254 230 231 209 204 201 195 177 185 205 220 222 234 250 259 266 271 268 264 267 271 273 286 285 275 252 234 242 267 297 294 304 305 313 328 335 333 340 350 338 329 313 310 323 319 323 324 340 327 327
200 195 197 204 207 207 211 214 214 214 222 224 223 223 221 223 226 221 226 232 234 231 226 222 219 221 232 245 252 249 245 226 218 230 250 253 230 226 240 245 231 218 205 193 208 222 233 234 244 262 269 265 269 271 267 262 272 273 275 283 289 283 298 298 273 283 315 305 319 306 330 351 341 336 337 338 336 326 317 336 329 344 340 338 348
197 195 193 193 194 202 207 213 214 216 217 227 225 224 229 228 226 230 225 232 233 232 227 225 233 239 236 238 245 252 271 289 309 286 279 276 261 253 254 250 234 234 222 207 217 218 238 252 263 268 265 269 271 266 257 255 256 255 280 305 285 286 289 333 3 360 321 316 318 333 304 343 347 330 358 350 339 348 341 340 337 348 347 6 17
195 197 191 189 189 189 193 198 209 214 216 222 233 229 230 237 234 228 232 227 230 233 237 231 222 225 229 225 213 209 193 159 46 13 337 319 301 288 280 272 258 248 231 222 245 237 246 247 253 257 264 264 271 270 262 260 253 283 328 331 333 342 314 340 340 349 348 337 335 341 357 349 339 343 347 356 354 357 354 339 336 339 339 49 39
197 194 191 191 190 187 187 187 190 200 209 212 221 229 232 243 247 244 237 240 234 234 236 243 242 231 224 200 163 109 78 55 39 5 352 341 331 298 277 276 258 161 201 218 216 253 254 255 265 289 304 301 291 306 0 25 14 4 309 283 282 306 335 319 307 318 316 333 353 34 11 339 10 359 354 353 357 346 345 339 335 337 345 24 39
196 196 194 191 186 176 168 166 174 179 186 194 206 216 220 223 226 229 237 236 244 246 249 245 245 236 219 195 182 117 80 67 25 1 352 334 320 313 302 281 290 255 233 237 243 262 285 299 26 47 34 38 39 33 19 14 29 12 9 21 32 65 355 359 21 11 13 20 29 23 44 36 19 3 356 357 348 347 347 350 342 358 14 3 18
198 195 201 198 191 178 173 193 185 182 183 184 190 199 206 212 214 215 223 228 234 238 237 237 243 270 251 191 176 108 78 53 9 357 348 339 315 301 284 286 78 41 330 279 203 271 255 286 34 38 32 39 34 35 53 50 76 69 61 58 50 39 28 50 51 54 62 58 43 45 37 27 17 11 10 357 358 346 354 352 2 22 10 5 359
189 182 191 194 180 169 174 198 208 202 195 191 187 184 200 205 204 207 212 215 222 227 231 225 211 201 187 160 85 79 79 40 354 12 356 343 327 315 333 21 10 339 344 92 354 326 66 72 56 38 34 41 58 33 57 60 63 62 58 57 59 52 46 38 56 64 63 71 61 49 45 35 18 20 10 5 348 356 352 359 18 12 13 7 9
195 191 194 185 191 189 178 199 206 208 208 201 192 185 195 198 199 200 207 202 180 208 192 167 174 185 147 105 91 91 83 31 358 10 3 333 318 307 40 38 63 53 60 53 56 57 63 56 57 51 49 76 87 82 63 64 64 63 59 56 60 59 50 46 44 55 61 69 67 55 43 27 27 23 17 12 2 6 358 11 11 17 23 16 16
206 198 201 203 200 197 198 197 202 202 201 196 186 182 184 180 188 182 150 139 143 146 138 167 165 152 125 126 100 72 69 13 353 359 345 339 330 318 87 84 81 71 63 65 69 66 61 64 60 72 86 89 89 85 84 81 79 73 65 58 52 52 53 55 52 54 63 66 61 57 42 35 32 13 13 16 18 15 10 9 4 9 18 13 23
141 168 186 215 208 215 206 198 199 200 192 192 195 188 188 178 181 131 100 123 118 113 123 120 102 107 118 107 100 78 58 16 344 349 356 357 24 69 83 89 83 81 78 80 85 84 81 74 61 57 52 59 76 80 83 88 86 82 74 68 66 62 53 46 48 52 59 62 67 65 53 42 33 27 16 15 15 12 3 11 1 6 350 342 357
188 172 178 192 190 209 235 236 210 188 184 196 203 196 198 173 145 117 113 113 120 117 108 113 116 112 98 92 93 74 62 29 359 4 34 91 93 95 93 85 81 82 90 87 88 88 81 76 79 78 72 73 50 71 96 99 91 88 84 80 78 74 70 65 63 65 66 67 70 68 65 57 45 33 22 11 10 359 349 0 352 337 341 343 351
188 175 180 189 201 208 218 212 182 177 192 197 205 186 131 100 106 122 112 111 104 102 117 116 118 110 104 102 89 69 49 18 24 67 74 85 101 104 100 96 96 94 91 90 84 82 80 84 86 81 66 72 44 63 92 95 88 85 84 82 82 86 87 83 79 77 81 85 87 90 88 76 61 48 31 18 9 2 15 9 5 355 353 346 350
193 197 183 191 175 158 145 144 171 184 183 185 145 106 94 103 111 112 117 118 112 117 118 106 91 91 98 92 81 74 61 41 63 80 90 88 96 102 101 104 102 95 83 73 74 72 71 70 67 73 76 75 40 72 82 91 90 88 87 86 81 78 77 73 80 94 121 116 108 96 75 65 63 63 48 29 20 14 16 18 2 359 354 354 349
105 130 136 132 133 162 163 146 130 129 120 93 95 98 94 94 102 107 111 110 110 120 114 108 98 84 84 87 79 81 83 67 54 66 69 83 102 111 112 109 100 90 86 74 64 63 60 58 55 55 60 55 51 44 62 83 84 87 86 81 79 76 69 67 67 63 53 50 50 47 43 36 34 28 38 40 29 26 20 10 1 2 356 352 349
131 137 112 106 111 119 127 127 131 123 124 107 97 107 119 117 120 117 113 108 109 102 97 89 85 78 74 76 75 80 83 74 47 61 83 103 112 110 107 105 101 98 93 90 81 75 71 68 53 52 60 57 53 50 38 45 93 91 88 80 79 77 72 63 56 58 59 53 53 49 41 33 26 28 24 21 25 22 25 15 5 3 353 349 343
102 103 105 108 110 95 86 110 117 121 123 116 119 122 119 123 126 127 119 113 112 105 96 88 82 70 64 72 80 83 89 84 49 47 55 68 82 92 95 94 96 92 91 87 87 84 81 77 70 62 68 64 63 57 54 46 48 63 63 64 48 48 67 78 65 54 54 50 45 37 34 31 28 27 18 15 17 9 6 16 3 6 355 348 340
103 99 87 79 88 102 110 110 109 108 112 110 111 107 109 103 90 105 111 117 116 109 106 100 93 84 82 86 89 86 80 72 86 50 55 64 76 87 97 93 90 90 87 87 86 88 88 84 77 72 71 69 64 65 61 59 62 71 53 49 40 45 63 62 54 50 44 40 37 32 24 16 20 14 12 3 8 5 351 352 360 350 348 342 335
107 107 108 105 104 102 106 108 105 107 106 102 105 109 113 114 119 110 112 107 104 108 112 114 109 101 104 104 99 95 90 81 68 74 70 73 73 78 96 102 102 97 101 99 98 98 93 88 83 75 73 69 65 62 66 73 72 62 59 50 44 48 57 53 45 42 40 38 29 28 17 12 6 7 5 1 1 360 345 345 343 338 329 323 321
111 108 106 106 105 106 109 111 110 113 115 115 113 116 126 126 120 123 123 122 122 118 118 115 114 115 115 109 107 106 102 97 74 73 78 76 74 72 70 83 93 97 100 100 99 101 100 95 92 87 82 80 75 69 63 60 64 58 60 67 61 49 49 59 53 44 38 32 31 18 18 11 6 3 2 356 354 352 345 341 343 334 329 323 321
107 103 104 109 112 115 110 108 110 112 116 118 120 123 122 121 120 127 126 118 115 114 119 117 111 114 111 111 112 108 102 96 95 80 83 78 75 72 70 72 84 104 105 102 99 98 104 111 103 97 97 95 95 87 75 67 62 58 57 57 61 61 56 46 42 34 31 26 20 17 11 12 7 3 353 343 341 346 345 344 337 333 332 328 324
101 105 111 113 114 114 110 108 108 111 114 113 113 118 120 117 114 118 117 117 120 123 122 117 119 120 116 115 113 111 108 112 112 106 94 85 76 77 79 79 75 72 83 95 102 116 122 119 120 124 124 113 94 83 80 85 89 84 68 59 59 52 43 40 35 31 21 17 16 10 8 2 360 357 346 343 346 356 349 341 337 345 343 344 336
112 115 113 113 112 111 109 112 113 110 109 106 103 102 105 116 119 121 123 124 124 125 124 124 125 123 122 120 118 118 118 120 123 120 119 111 107 102 99 97 103 108 110 123 130 119 107 99 86 85 91 90 98 104 103 111 99 77 67 63 60 58 54 43 31 27 22 10 11 2 5 356 350 351 354 353 359 3 357 346 343 346 341 343 327
125 124 118 113 108 102 98 95 97 87 66 60 67 80 102 110 101 79 76 99 125 126 127 125 120 125 126 127 124 122 122 122 126 130 126 124 121 118 122 125 123 120 119 117 112 111 114 123 126 131 135 130 113 95 87 85 82 77 69 63 58 52 51 53 48 31 22 12 7 357 359 351 360 356 349 355 0 0 2 350 347 342 341 336 329
121 117 114 110 107 110 109 104 99 96 87 73 60 41 18 15 56 77 47 22 0 97 130 120 117 117 128 131 132 126 131 131 106 20 62 58 114 137 141 136 133 123 107 119 127 136 143 136 122 115 109 102 101 94 90 81 70 59 53 49 53 52 41 23 29 26 15 6 7 1 3 353 1 355 352 356 358 353 7 348 350 345 337 337 340
119 115 114 113 112 110 105 101 100 104 105 99 94 75 59 53 28 35 49 18 34 34 42 67 73 125 102 59 53 141 132 102 89 77 77 77 70 67 65 74 93 117 133 161 154 135 123 110 105 97 87 77 80 79 80 77 79 80 75 60 50 44 32 27 21 19 13 7 5 6 1 355 354 355 351 354 352 350 4 349 351 347 344 348 348
110 111 113 109 105 113 113 107 101 100 100 100 95 95 92 60 52 44 39 41 41 39 42 40 41 42 82 104 64 60 82 93 92 94 90 85 84 84 91 97 106 123 164 199 150 116 121 118 110 105 101 90 79 81 70 59 52 52 51 52 42 37 31 26 10 3 11 5 5 8 0 1 356 356 352 356 349 346 356 356 355 350 351 350 352
121 118 111 109 103 111 113 111 112 106 104 105 105 110 106 100 70 44 43 44 48 49 46 44 48 58 65 94 111 87 72 89 103 99 100 97 98 103 104 108 104 112 262 290 136 119 109 99 91 84 78 77 64 48 43 46 46 32 30 35 38 32 19 23 2 357 5 5 357 7 360 359 357 353 349 355 347 351 356 356 358 356 353 352 353
119 120 121 119 114 113 122 125 125 123 119 116 119 122 120 118 108 100 68 63 66 63 53 48 50 54 67 67 74 103 118 120 112 108 107 110 107 105 102 90 91 345 304 168 113 111 99 99 98 88 76 76 67 48 38 22 22 25 14 12 17 28 22 15 3 2 358 6 348 5 355 358 358 345 350 353 357 354 357 356 359 356 357 353 353
125 133 141 137 131 129 129 132 132 132 131 131 129 126 124 118 120 119 116 111 91 74 65 53 50 68 64 83 102 110 118 122 117 117 117 117 120 119 110 100 43 284 272 121 117 97 80 80 74 73 68 59 63 52 41 37 26 14 12 21 24 28 33 9 13 6 352 355 7 8 358 358 2 350 356 358 3 356 1 360 360 1 357 355 352
121 115 125 137 137 138 136 136 137 135 136 139 138 133 124 129 131 131 131 129 124 118 113 79 42 30 85 94 98 111 119 122 125 126 126 130 129 131 127 130 135 140 138 114 107 102 104 94 89 72 65 63 57 59 57 32 13 17 17 24 17 23 18 24 17 7 355 354 12 12 355 358 4 356 354 2 4 0 3 1 358 360 355 355 348
136 140 140 143 142 140 135 135 135 139 143 141 142 134 137 141 139 136 134 131 131 130 123 100 95 62 66 69 88 108 116 126 131 140 145 146 155 166 161 145 125 119 111 107 95 91 88 92 99 101 101 92 70 43 26 25 16 26 11 6 17 18 10 18 15 3 352 352 11 11 349 4 5 357 352 3 5 2 1 3 357 359 353 356 347
143 145 150 146 146 139 134 133 137 137 137 142 141 143 149 146 142 142 140 139 137 136 128 127 122 114 110 105 94 81 89 112 132 143 164 173 187 217 194 120 120 122 121 120 123 122 120 113 105 100 88 82 74 56 28 20 20 34 65 29 26 25 11 1 15 357 349 350 2 11 355 5 359 3 349 358 2 3 2 359 354 356 355 352 344
148 154 150 146 143 136 141 144 133 136 146 143 146 152 151 150 151 149 146 146 146 141 145 149 149 145 149 139 161 152 130 118 106 102 210 277 238 233 200 125 139 137 127 128 127 129 120 122 118 105 104 99 25 5 16 27 37 22 13 40 359 64 342 324 35 2 348 348 360 5 359 355 6 358 355 0 1 360 359 359 356 352 349 350 350
148 107 114 138 148 151 150 145 148 158 151 157 156 158 152 156 157 155 152 151 154 154 154 158 162 159 151 148 158 143 147 159 168 165 174 186 198 176 149 159 151 143 133 128 134 133 115 99 90 76 52 34 36 31 30 38 34 38 356 352 5 6 357 355 13 1 352 1 360 5 358 345 4 5 359 359 0 354 355 357 354 350 349 349 349
150 151 149 157 158 159 155 155 160 165 163 165 161 162 160 163 163 161 163 160 163 162 166 168 170 162 153 160 161 166 177 174 180 173 176 171 169 158 164 157 153 140 149 148 133 122 126 112 101 98 90 27 42 48 55 42 46 53 19 19 360 6 1 11 7 359 5 0 6 6 2 351 0 357 3 5 358 350 353 353 351 350 348 344 347
160 158 156 181 168 165 169 168 177 176 174 178 167 173 172 170 168 169 171 171 172 172 172 175 169 158 160 162 161 181 189 180 181 173 169 170 166 169 167 152 157 155 149 153 151 129 96 101 98 62 55 54 78 87 61 40 12 20 34 6 21 9 358 20 18 12 359 11 13 6 351 8 350 360 6 2 348 344 348 347 348 349 348 348 348
167 158 171 177 178 185 176 184 183 185 181 182 177 186 170 183 177 185 175 181 180 185 178 183 166 140 91 123 160 197 271 188 179 170 166 175 174 171 161 159 150 154 158 148 149 144 112 114 74 52 65 81 77 56 47 49 12 11 23 10 23 17 358 8 24 24 3 15 18 1 356 13 348 2 12 359 348 352 349 355 349 347 348 348 352
183 172 177 182 184 196 187 186 184 181 188 190 186 197 184 184 186 188 185 188 180 188 184 178 150 144 143 146 167 220 227 186 160 174 176 172 168 153 161 155 152 156 158 148 150 140 148 137 90 102 104 75 61 51 48 57 25 2 32 22 34 12 3 14 20 25 14 9 8 353 360 14 358 1 6 356 352 348 351 350 345 346 345 344 346
191 190 185 190 190 197 198 190 188 187 188 193 189 187 192 191 189 186 188 187 184 187 185 182 167 151 153 159 183 215 203 176 183 183 174 171 167 177 170 158 156 157 158 159 148 138 120 116 113 101 108 104 79 55 47 52 39 40 26 18 59 30 10 30 34 33 9 357 5 350 7 12 352 354 3 352 348 348 347 349 340 346 341 342 342
194 196 191 192 193 195 195 194 191 188 188 183 192 187 194 197 191 189 188 185 189 189 189 186 168 157 158 165 180 195 190 186 184 171 182 180 176 174 161 155 159 171 167 150 135 128 127 121 120 122 125 111 101 94 81 64 46 38 45 34 20 38 49 41 32 30 18 3 338 356 9 354 348 349 356 350 346 344 341 342 341 339 338 341 340
194 194 193 195 190 195 192 189 193 190 189 189 190 188 189 200 196 191 196 188 187 190 186 180 180 168 165 170 181 188 182 176 183 187 181 182 181 171 163 166 166 170 159 144 139 142 127 128 130 126 114 108 114 111 108 104 84 74 60 63 49 59 64 63 40 13 22 6 360 358 358 346 345 349 357 339 343 346 340 336 336 340 339 335 335
195 197 193 197 193 195 197 190 192 194 192 193 199 196 187 198 195 193 198 192 188 186 184 187 184 182 182 177 177 176 178 185 182 181 187 180 164 167 162 159 158 152 139 137 135 131 132 137 124 123 118 117 110 115 113 109 117 101 81 76 86 67 49 17 30 19 359 6 1 351 355 329 339 337 349 347 336 341 338 338 339 337 335 334 329
196 198 195 198 196 195 194 194 192 194 197 192 196 200 193 190 184 190 185 181 185 187 186 181 184 176 169 172 171 169 182 186 178 182 174 170 158 151 147 151 152 147 144 145 149 144 143 130 126 123 119 116 134 124 120 126 102 104 112 96 61 52 26 332 322 55 11 328 343 340 333 330 335 336 341 336 336 335 335 336 335 333 330 328 329
201 198 195 195 196 194 190 191 188 189 193 187 186 193 184 192 189 188 183 186 187 185 183 175 171 169 173 175 178 185 182 179 179 171 165 158 151 149 156 157 153 149 155 152 148 139 138 132 136 129 127 131 124 138 138 130 136 122 114 104 96 92 51 359 348 41 321 298 320 331 324 325 327 328 327 328 331 331 330 330 328 328 329 331 329
202 199 199 193 194 194 189 191 185 191 186 186 180 185 179 189 187 189 182 182 182 184 181 176 171 171 179 178 185 181 176 173 164 166 159 156 158 159 156 156 159 164 160 152 150 150 152 135 145 141 138 131 131 136 141 130 122 128 108 105 122 138 134 97 25 6 322 356 331 322 326 324 326 324 323 328 328 327 328 330 329 327 329 328 328
200 200 198 196 194 193 188 189 186 191 183 186 183 186 180 187 180 183 178 183 185 185 182 179 177 180 179 183 184 173 170 168 167 162 161 162 162 161 161 163 168 167 162 153 156 158 154 160 166 156 155 138 144 144 118 124 109 86 101 122 141 151 172 243 256 138 348 315 311 309 320 327 322 320 323 327 331 328 331 321 322 327 328 327 330